Wind_Speed
27 25 23 21 19 18 16 15 14 13 12 11 10 9 8 7 6 6 5 5 5 4 4 4 4 3 2 2 2 1 0 1 1 2 2 3 4 5 6 8 9 10 11
29 27 24 23 21 19 17 16 15 14 13 12 11 10 9 8 8 7 7 7 6 5 5 5 5 4 3 3 2 2 1 1 1 1 2 3 4 5 6 7 9 10 11
29 28 26 24 22 21 19 18 16 15 14 13 12 11 10 10 9 9 8 8 7 7 6 6 5 5 4 4 3 3 2 2 2 2 2 3 4 5 6 7 9 10 11
31 29 27 26 24 22 20 19 18 16 15 14 13 12 12 11 10 10 9 9 9 8 7 7 6 6 5 5 5 4 4 3 3 3 4 4 5 6 7 8 9 10 11
33 30 28 27 25 23 22 20 19 18 16 15 14 13 13 12 11 11 10 10 9 9 8 8 7 7 6 6 6 5 5 5 5 5 5 5 6 6 7 8 10 11 12
35 32 30 28 26 24 23 21 20 19 18 16 16 14 13 12 12 11 11 10 10 9 9 9 8 8 7 7 7 7 6 6 6 6 6 6 7 8 8 9 10 11 12
36 34 31 29 27 25 24 23 21 20 19 18 17 15 14 13 13 12 12 11 11 10 10 9 9 8 8 8 8 7 7 7 7 8 8 8 9 9 10 10 11 13 13
37 34 32 30 28 27 25 24 23 21 21 19 18 16 15 14 14 13 13 12 12 11 10 10 9 9 9 8 8 8 8 8 9 9 9 10 10 11 11 12 13 14 15
38 36 33 32 30 28 26 25 24 23 22 20 19 18 17 16 15 14 13 13 12 12 11 11 10 10 9 9 9 9 9 9 10 10 10 11 12 12 13 14 14 16 16
39 37 34 33 31 29 27 26 25 23 22 21 20 19 18 18 17 16 15 14 13 13 12 12 12 11 11 10 10 10 10 11 11 11 12 12 13 14 15 15 16 17 18
40 37 35 34 32 30 28 27 26 24 23 22 21 20 19 18 18 17 16 15 14 14 13 13 13 13 12 12 12 12 12 12 12 13 14 14 15 16 17 17 18 19 20
40 38 36 34 33 31 29 28 27 25 24 23 22 21 20 19 19 18 17 17 16 15 15 15 15 14 14 14 14 14 14 14 14 15 15 16 17 18 18 19 20 21 22
41 38 37 35 34 32 30 29 28 26 25 24 23 22 21 21 20 19 19 18 18 17 17 17 17 16 16 16 16 16 16 16 17 17 17 18 19 20 20 21 22 23 24
42 39 37 37 35 33 32 30 29 28 26 25 24 23 23 22 22 21 20 20 19 19 19 18 18 18 18 18 19 19 19 19 19 20 20 20 21 22 22 23 24 25 26
45 41 38 37 35 35 33 32 30 29 28 27 26 25 24 23 23 23 22 21 21 21 21 20 20 20 20 20 21 21 21 22 22 22 22 23 23 24 25 25 26 27 28
46 44 41 39 38 36 35 33 32 30 29 28 27 27 26 25 25 24 24 23 23 23 22 22 22 22 22 23 23 23 24 24 24 24 24 25 25 26 27 27 28 29 30
46 45 43 41 39 38 36 34 32 31 30 30 29 28 28 27 27 26 26 25 25 25 25 24 24 25 25 25 25 26 26 26 26 26 26 26 27 28 28 30 31 32 32
45 45 44 41 40 39 38 36 34 33 33 32 31 31 30 29 29 28 28 27 27 27 27 27 27 27 27 27 27 27 27 28 28 28 28 29 29 30 31 32 33 34 35
45 44 45 42 40 41 39 36 36 35 35 34 33 33 32 32 31 30 30 29 29 29 30 29 29 29 29 29 29 29 29 29 29 30 30 31 32 33 34 35 36 36 37
46 45 45 45 42 41 40 40 40 39 37 36 36 36 35 34 33 33 32 32 32 32 32 32 31 31 31 31 31 31 31 31 31 32 33 34 35 36 36 37 38 38 38
47 46 46 46 45 43 42 42 42 41 40 39 39 38 37 36 36 35 35 35 35 34 34 34 33 33 33 34 33 33 33 33 34 35 35 36 37 37 38 39 40 40 41
46 45 44 45 45 45 44 45 44 43 43 42 42 41 40 39 39 38 38 38 38 38 37 36 36 35 35 35 35 35 35 35 35 36 36 37 39 39 40 41 42 42 42
45 45 44 44 44 45 44 45 46 46 45 45 45 44 42 42 40 40 40 39 39 39 38 38 37 36 35 35 36 36 36 35 36 37 38 39 40 41 42 43 44 44 44
46 45 45 45 45 46 46 45 46 46 46 45 45 45 44 43 42 41 40 40 39 38 38 38 36 36 37 37 38 38 39 39 39 39 40 41 42 43 44 44 45 45 45
45 45 45 45 45 46 47 46 47 47 46 46 46 46 45 45 44 42 40 39 40 39 38 38 39 39 38 38 39 40 41 41 42 43 42 42 43 44 44 45 45 46 46
44 44 44 45 43 44 45 47 47 48 48 47 46 45 44 43 43 42 42 41 41 40 39 39 40 39 39 39 40 41 42 43 44 45 45 44 44 44 45 46 46 47 47
Wind_Direction
228 229 228 228 226 225 224 221 217 215 212 212 213 217 222 228 235 239 242 246 250 256 263 267 272 279 289 294 293 288 328 10 31 39 40 37 33 29 24 20 17 13 10
226 226 226 226 225 224 224 223 220 217 215 216 217 219 223 228 236 240 242 246 249 253 261 265 265 271 278 283 283 273 271 291 314 346 4 12 12 9 7 7 6 5 5
225 225 225 224 224 223 223 223 221 219 218 219 220 222 225 229 235 239 244 247 249 253 259 263 262 267 271 273 272 265 265 275 286 308 325 338 346 349 352 355 357 358 359
223 224 224 224 223 223 223 223 222 221 221 221 222 224 226 229 233 240 245 248 250 252 255 257 259 263 265 265 266 265 265 270 280 293 306 317 328 336 342 346 349 350 351
221 223 224 224 223 223 223 223 223 223 223 222 222 223 226 231 234 239 243 248 249 249 253 255 257 259 261 262 264 265 266 271 279 288 297 308 317 324 330 335 338 340 342
220 221 222 223 223 223 223 223 223 223 224 223 223 224 227 231 234 239 243 247 248 248 251 254 256 258 258 261 265 266 268 272 278 285 293 301 309 316 323 327 330 332 335
219 220 221 222 223 223 223 223 223 223 224 224 224 224 227 232 236 240 244 247 247 248 251 254 256 257 257 262 265 268 271 274 279 283 291 298 304 310 315 319 323 326 329
218 218 220 222 222 221 221 222 223 223 223 224 225 226 229 233 237 240 244 245 246 248 250 252 255 257 258 261 264 269 273 276 280 285 290 296 301 306 310 314 318 321 324
217 218 219 221 220 219 220 221 223 224 224 225 226 228 229 233 236 240 243 243 246 247 249 252 254 257 259 261 264 269 272 276 281 285 289 294 299 304 308 311 314 317 319
214 216 217 218 219 219 220 221 223 224 225 225 227 228 230 233 236 240 242 243 245 247 249 252 254 256 259 261 265 269 273 277 282 286 290 294 298 302 305 308 312 314 316
215 216 217 217 218 218 220 221 223 225 226 227 228 228 230 233 237 239 241 242 244 246 249 252 254 256 258 262 267 271 274 278 282 287 291 294 298 301 304 307 310 312 313
215 217 217 216 218 218 220 222 223 225 226 227 228 229 231 234 237 239 240 241 244 246 249 252 254 256 259 263 267 271 275 279 283 287 290 293 296 300 303 305 308 310 311
215 217 217 218 219 219 220 221 223 224 226 228 229 231 232 235 237 239 240 241 244 247 250 253 256 258 261 264 267 270 274 278 282 286 289 292 295 298 301 303 305 307 308
213 216 218 219 219 219 220 221 222 224 226 228 231 232 234 236 238 239 241 243 246 248 251 254 257 260 262 265 269 272 275 278 281 285 288 291 294 297 299 301 303 305 306
212 214 217 220 220 220 221 222 223 225 227 230 231 234 235 237 239 241 243 245 248 250 253 256 258 261 264 267 271 274 277 279 282 285 287 290 293 295 298 300 302 303 305
214 215 217 220 220 222 222 222 223 226 228 230 233 235 236 238 241 243 245 247 250 252 255 257 260 262 265 268 271 274 277 280 282 285 287 290 293 296 298 299 300 302 303
216 217 217 219 220 221 222 223 224 227 230 232 234 236 237 239 241 244 247 249 251 253 256 259 261 264 266 268 271 274 276 279 282 284 286 289 292 295 297 298 300 301 302
217 218 217 218 219 221 223 224 226 229 231 233 235 238 239 240 242 245 247 250 252 254 257 259 262 264 266 268 271 273 276 279 281 284 286 288 291 293 295 298 299 301 302
217 219 219 219 219 222 223 226 228 230 232 234 237 240 241 242 244 246 248 251 254 256 258 260 262 264 267 268 271 273 276 279 281 283 286 288 291 293 295 298 299 300 300
219 220 221 222 222 225 227 229 230 232 233 235 238 240 242 244 246 248 251 253 255 257 259 260 263 265 267 269 271 273 276 278 280 283 286 288 290 292 295 297 299 299 300
221 223 224 225 226 228 229 231 232 234 236 237 239 241 243 245 247 249 251 254 255 257 259 261 264 266 268 269 271 273 275 277 279 282 285 287 290 292 294 296 297 298 298
221 224 226 227 227 229 231 232 233 234 236 237 239 242 244 246 248 250 252 254 255 257 260 262 264 265 268 270 272 273 275 276 279 282 284 287 289 291 293 295 296 297 297
226 228 229 228 229 229 233 233 233 234 237 239 241 241 243 246 249 251 252 253 255 257 258 259 263 264 268 270 273 274 275 275 277 281 285 287 289 291 293 294 296 296 296
231 232 233 233 233 231 232 233 234 236 239 241 243 243 244 247 249 251 251 253 254 256 258 259 261 264 267 271 273 274 275 277 279 281 284 286 288 290 293 294 295 296 296
233 235 236 237 237 236 235 236 238 239 240 241 243 244 244 245 248 251 252 252 255 258 261 262 264 266 269 271 273 275 277 279 281 283 284 286 288 290 292 293 294 295 295
235 236 237 239 240 240 239 239 241 243 243 244 246 247 246 247 249 250 253 255 258 261 263 264 266 268 270 273 275 277 278 280 283 284 285 286 288 290 292 293 293 294 294
Height
5854 5857 5860 5863 5865 5867 5869 5870 5872 5873 5874 5875 5877 5878 5879 5880 5881 5882 5883 5883 5884 5885 5885 5885 5885 5885 5885 5885 5885 5885 5886 5885 5885 5885 5885 5885 5884 5884 5883 5882 5882 5881 5880
5850 5854 5857 5860 5862 5864 5866 5868 5870 5871 5872 5874 5875 5876 5877 5879 5880 5881 5882 5882 5883 5884 5884 5884 5885 5885 5885 5885 5885 5885 5885 5885 5885 5885 5885 5885 5884 5884 5883 5882 5881 5880 5879
5847 5850 5853 5856 5859 5861 5863 5865 5867 5869 5870 5872 5873 5875 5876 5877 5878 5880 5880 5881 5882 5883 5883 5883 5884 5884 5884 5884 5885 5885 5885 5885 5885 5885 5885 5884 5884 5883 5883 5882 5881 5880 5879
5843 5847 5850 5853 5856 5858 5860 5863 5865 5867 5868 5870 5871 5873 5874 5876 5877 5878 5879 5880 5881 5881 5882 5882 5883 5883 5883 5884 5884 5884 5884 5884 5884 5884 5884 5884 5883 5883 5882 5881 5880 5879 5878
5839 5842 5846 5850 5852 5855 5858 5860 5862 5864 5866 5868 5869 5871 5872 5874 5875 5876 5877 5878 5879 5880 5881 5881 5882 5882 5882 5883 5883 5883 5884 5884 5884 5884 5883 5883 5882 5882 5881 5880 5879 5878 5877
5834 5838 5842 5846 5849 5852 5854 5857 5859 5861 5863 5865 5867 5869 5870 5872 5873 5875 5876 5877 5878 5878 5879 5880 5880 5881 5881 5882 5882 5882 5883 5883 5883 5882 5882 5882 5881 5881 5880 5879 5878 5877 5876
5829 5834 5838 5842 5845 5848 5851 5854 5856 5858 5861 5863 5864 5866 5868 5870 5871 5873 5874 5875 5876 5877 5877 5878 5879 5879 5880 5880 5881 5881 5881 5881 5881 5881 5881 5881 5880 5879 5879 5878 5877 5876 5874
5824 5829 5833 5837 5841 5845 5848 5850 5853 5855 5858 5860 5862 5864 5866 5867 5869 5870 5872 5873 5874 5875 5876 5876 5877 5878 5878 5879 5879 5880 5880 5880 5880 5880 5879 5879 5878 5878 5877 5876 5875 5874 5872
5818 5823 5828 5832 5837 5840 5844 5847 5850 5852 5855 5857 5859 5861 5863 5865 5867 5868 5869 5871 5872 5873 5874 5875 5875 5876 5877 5877 5877 5878 5878 5878 5878 5878 5878 5877 5876 5876 5875 5874 5873 5872 5870
5813 5819 5823 5828 5832 5836 5840 5843 5846 5849 5852 5854 5856 5858 5860 5862 5864 5865 5867 5868 5869 5870 5872 5872 5873 5874 5875 5875 5875 5876 5876 5876 5876 5876 5875 5875 5874 5873 5873 5872 5870 5869 5868
5807 5813 5819 5823 5827 5832 5836 5839 5842 5845 5848 5851 5853 5855 5857 5859 5861 5862 5864 5865 5867 5868 5869 5870 5871 5872 5872 5873 5873 5874 5874 5874 5874 5873 5873 5872 5872 5871 5870 5869 5868 5866 5865
5803 5809 5814 5819 5823 5827 5831 5835 5839 5842 5845 5847 5849 5851 5854 5856 5858 5859 5861 5862 5864 5865 5866 5867 5868 5869 5870 5870 5870 5871 5871 5871 5871 5870 5870 5869 5868 5868 5867 5865 5864 5863 5861
5797 5803 5809 5814 5818 5822 5827 5831 5834 5838 5840 5843 5846 5848 5850 5852 5854 5856 5857 5859 5860 5862 5863 5864 5865 5866 5867 5867 5867 5868 5868 5868 5867 5867 5866 5866 5865 5864 5863 5862 5860 5859 5857
5791 5798 5803 5808 5813 5817 5822 5826 5830 5833 5836 5839 5842 5844 5846 5848 5850 5852 5854 5855 5857 5858 5859 5860 5861 5862 5863 5863 5864 5864 5864 5864 5864 5863 5862 5862 5861 5860 5858 5857 5856 5854 5853
5785 5792 5797 5802 5807 5812 5817 5821 5825 5828 5832 5835 5837 5840 5842 5844 5846 5848 5850 5851 5853 5854 5855 5856 5857 5858 5859 5859 5859 5860 5860 5860 5859 5859 5858 5857 5856 5855 5854 5853 5851 5850 5848
5779 5785 5791 5797 5801 5806 5811 5815 5819 5823 5827 5830 5832 5835 5837 5839 5842 5843 5845 5847 5848 5849 5851 5852 5852 5853 5854 5854 5855 5855 5855 5855 5855 5854 5853 5853 5852 5850 5849 5848 5846 5844 5842
5772 5779 5785 5791 5795 5800 5805 5809 5814 5817 5821 5824 5827 5830 5832 5834 5836 5838 5840 5842 5843 5844 5846 5847 5847 5848 5849 5849 5850 5850 5850 5850 5849 5849 5848 5847 5846 5845 5844 5842 5840 5838 5836
5765 5772 5778 5784 5790 5795 5799 5804 5808 5811 5815 5818 5821 5824 5826 5829 5831 5833 5835 5836 5838 5839 5840 5841 5842 5843 5843 5844 5844 5844 5844 5844 5844 5843 5842 5841 5840 5839 5837 5836 5834 5832 5830
5758 5765 5772 5777 5783 5788 5793 5797 5801 5805 5808 5812 5815 5818 5820 5822 5825 5827 5829 5830 5832 5833 5834 5835 5836 5837 5837 5838 5838 5838 5838 5838 5837 5837 5836 5835 5834 5832 5831 5829 5827 5825 5823
5752 5759 5765 5771 5776 5781 5785 5789 5793 5798 5801 5805 5808 5811 5814 5816 5818 5820 5822 5824 5825 5827 5828 5829 5829 5830 5831 5831 5832 5832 5832 5831 5831 5830 5829 5828 5827 5825 5823 5822 5819 5817 5815
5746 5752 5758 5764 5769 5774 5778 5782 5786 5791 5794 5798 5801 5804 5806 5809 5811 5813 5815 5817 5818 5819 5820 5821 5822 5823 5823 5824 5825 5825 5825 5824 5824 5823 5822 5821 5819 5817 5816 5813 5811 5809 5807
5740 5745 5751 5756 5762 5767 5771 5775 5779 5783 5786 5789 5792 5795 5798 5801 5803 5805 5807 5809 5810 5811 5812 5813 5814 5815 5815 5816 5817 5817 5817 5818 5816 5816 5814 5813 5811 5809 5807 5805 5803 5801 5798
5734 5739 5744 5749 5754 5759 5763 5767 5770 5773 5777 5780 5784 5787 5790 5792 5794 5796 5798 5800 5801 5802 5804 5805 5806 5806 5807 5807 5808 5808 5809 5809 5808 5808 5806 5804 5802 5801 5799 5796 5794 5792 5789
5728 5732 5737 5742 5747 5751 5755 5759 5762 5766 5769 5773 5776 5778 5781 5782 5785 5787 5789 5790 5792 5793 5795 5796 5797 5798 5798 5799 5799 5799 5799 5799 5799 5800 5799 5796 5794 5792 5790 5787 5784 5782 5779
5721 5726 5730 5734 5738 5742 5746 5750 5753 5757 5761 5764 5766 5769 5771 5773 5775 5778 5780 5781 5783 5785 5786 5787 5788 5789 5789 5790 5790 5790 5790 5789 5788 5788 5789 5788 5785 5782 5780 5778 5775 5772 5770
5715 5719 5723 5727 5730 5733 5737 5741 5745 5748 5751 5754 5757 5759 5762 5764 5767 5769 5770 5772 5774 5775 5777 5777 5778 5779 5780 5780 5780 5780 5780 5780 5779 5777 5777 5777 5775 5773 5770 5768 5765 5762 5759